Time,TemperatureF,DewpointF,PressureIn,WindDirection,WindDirectionDegrees,WindSpeedMPH,WindSpeedGustMPH,Humidity,HourlyPrecipIn,Conditions,Clouds,dailyrainin,SoftwareType,DateUTC
2013-03-01 00:07:00,30.6,26.0,30.00,North,5,0.0,0.0,84,0.00,,,0.00,weatherlink.com 1.10,2013-03-01 05:07:00,
2013-03-01 00:22:00,30.5,26.0,30.00,NNW,339,0.0,1.0,83,0.00,,,0.00,weatherlink.com 1.10,2013-03-01 05:22:00,
2013-03-01 00:37:00,30.4,26.0,30.00,NNW,330,0.0,1.0,84,0.00,,,0.00,weatherlink.com 1.10,2013-03-01 05:37:00,
2013-03-01 00:52:00,30.2,26.0,30.01,NNW,332,0.0,2.0,83,0.00,,,0.00,weatherlink.com 1.10,2013-03-01 05:52:00,
2013-03-01 01:07:00,30.1,25.0,30.01,NNW,347,1.0,2.0,82,0.00,,,0.00,weatherlink.com 1.10,2013-03-01 06:07:00,
2013-03-01 01:22:00,30.0,25.0,30.01,NW,309,0.0,3.0,83,0.00,,,0.00,weatherlink.com 1.10,2013-03-01 06:22:00,
2013-03-01 01:37:00,30.0,25.0,30.01,WSW,239,0.0,1.0,83,0.00,,,0.00,weatherlink.com 1.10,2013-03-01 06:37:00,
2013-03-01 01:52:00,29.9,25.0,30.02,NNW,329,0.0,2.0,82,0.00,,,0.00,weatherlink.com 1.10,2013-03-01 06:52:00,
2013-03-01 02:07:00,29.8,25.0,30.02,NNW,347,0.0,1.0,81,0.00,,,0.00,weatherlink.com 1.10,2013-03-01 07:07:00,
2013-03-01 02:22:00,29.8,25.0,30.02,NNW,328,0.0,2.0,81,0.00,,,0.00,weatherlink.com 1.10,2013-03-01 07:22:00,
2013-03-01 02:37:00,29.7,25.0,30.02,East,79,0.0,1.0,81,0.00,,,0.00,weatherlink.com 1.10,2013-03-01 07:37:00,
2013-03-01 02:52:00,29.6,24.0,30.02,NW,321,0.0,1.0,81,0.00,,,0.00,weatherlink.com 1.10,2013-03-01 07:52:00,
2013-03-01 03:07:00,29.5,24.0,30.02,NNW,344,0.0,0.0,79,0.00,,,0.00,weatherlink.com 1.10,2013-03-01 08:07:00,
2013-03-01 03:22:00,29.4,24.0,30.02,NW,314,0.0,0.0,80,0.00,,,0.00,weatherlink.com 1.10,2013-03-01 08:22:00,
2013-03-01 03:37:00,29.3,24.0,30.02,NNW,330,1.0,1.0,80,0.00,,,0.00,weatherlink.com 1.10,2013-03-01 08:37:00,
2013-03-01 03:52:00,29.1,23.0,30.02,NNW,343,0.0,0.0,79,0.00,,,0.00,weatherlink.com 1.10,2013-03-01 08:52:00,
2013-03-01 04:07:00,29.1,24.0,30.02,WSW,238,0.0,0.0,80,0.00,,,0.00,weatherlink.com 1.10,2013-03-01 09:07:00,
2013-03-01 04:23:00,29.0,23.0,30.02,NNW,330,0.0,0.0,78,0.00,,,0.00,weatherlink.com 1.10,2013-03-01 09:23:00,
2013-03-01 04:38:00,28.9,23.0,30.03,NNW,348,0.0,0.0,79,0.00,,,0.00,weatherlink.com 1.10,2013-03-01 09:38:00,
2013-03-01 04:53:00,28.8,23.0,30.04,NW,308,0.0,0.0,79,0.00,,,0.00,weatherlink.com 1.10,2013-03-01 09:53:00,
2013-03-01 05:08:00,28.8,23.0,30.04,NW,315,0.0,0.0,79,0.00,,,0.00,weatherlink.com 1.10,2013-03-01 10:08:00,
2013-03-01 05:23:00,28.8,23.0,30.04,NNW,329,0.0,2.0,79,0.00,,,0.00,weatherlink.com 1.10,2013-03-01 10:23:00,
2013-03-01 05:38:00,28.7,23.0,30.04,NNW,329,0.0,0.0,79,0.00,,,0.00,weatherlink.com 1.10,2013-03-01 10:38:00,
2013-03-01 05:53:00,28.7,23.0,30.04,NNW,327,1.0,1.0,78,0.00,,,0.00,weatherlink.com 1.10,2013-03-01 10:53:00,
2013-03-01 06:08:00,28.5,22.0,30.05,NNW,333,0.0,2.0,77,0.00,,,0.00,weatherlink.com 1.10,2013-03-01 11:08:00,
2013-03-01 06:23:00,28.4,22.0,30.05,NNW,347,0.0,1.0,77,0.00,,,0.00,weatherlink.com 1.10,2013-03-01 11:23:00,
2013-03-01 06:38:00,28.2,22.0,30.05,ESE,108,0.0,4.0,78,0.00,,,0.00,weatherlink.com 1.10,2013-03-01 11:38:00,
2013-03-01 06:53:00,27.9,22.0,30.05,South,176,1.0,2.0,77,0.00,,,0.00,weatherlink.com 1.10,2013-03-01 11:53:00,
2013-03-01 07:08:00,27.7,22.0,30.06,SSE,161,0.0,1.0,79,0.00,,,0.00,weatherlink.com 1.10,2013-03-01 12:08:00,
2013-03-01 07:23:00,27.4,21.0,30.07,NNW,340,0.0,2.0,78,0.00,,,0.00,weatherlink.com 1.10,2013-03-01 12:23:00,
2013-03-01 07:38:00,27.1,21.0,30.07,SE,125,2.0,3.0,79,0.00,,,0.00,weatherlink.com 1.10,2013-03-01 12:38:00,
2013-03-01 07:53:00,26.9,21.0,30.08,NW,316,0.0,2.0,79,0.00,,,0.00,weatherlink.com 1.10,2013-03-01 12:53:00,
2013-03-01 08:08:00,26.8,21.0,30.09,North,4,0.0,1.0,78,0.00,,,0.00,weatherlink.com 1.10,2013-03-01 13:08:00,
2013-03-01 08:23:00,26.7,21.0,30.09,SSE,153,1.0,2.0,78,0.00,,,0.00,weatherlink.com 1.10,2013-03-01 13:23:00,
2013-03-01 08:38:00,26.7,21.0,30.09,SE,132,0.0,3.0,78,0.00,,,0.00,weatherlink.com 1.10,2013-03-01 13:38:00,
2013-03-01 08:53:00,27.0,21.0,30.10,NNW,343,0.0,2.0,78,0.00,,,0.00,weatherlink.com 1.10,2013-03-01 13:53:00,
2013-03-01 09:08:00,26.9,21.0,30.10,WSW,252,1.0,3.0,79,0.00,,,0.00,weatherlink.com 1.10,2013-03-01 14:08:00,
2013-03-01 09:23:00,26.9,21.0,30.10,SSE,148,0.0,6.0,79,0.00,,,0.00,weatherlink.com 1.10,2013-03-01 14:23:00,
2013-03-01 09:38:00,27.0,20.0,30.10,WNW,297,0.0,3.0,76,0.00,,,0.00,weatherlink.com 1.10,2013-03-01 14:38:00,
2013-03-01 09:53:00,27.2,21.0,30.10,NNE,23,1.0,5.0,76,0.00,,,0.00,weatherlink.com 1.10,2013-03-01 14:53:00,
2013-03-01 10:08:00,27.3,21.0,30.11,NNW,327,2.0,4.0,76,0.00,,,0.00,weatherlink.com 1.10,2013-03-01 15:08:00,
2013-03-01 10:23:00,27.2,21.0,30.11,SSE,148,1.0,5.0,77,0.00,,,0.00,weatherlink.com 1.10,2013-03-01 15:23:00,
2013-03-01 10:38:00,27.2,21.0,30.11,SSE,161,1.0,3.0,76,0.00,,,0.00,weatherlink.com 1.10,2013-03-01 15:38:00,
2013-03-01 10:53:00,26.9,20.0,30.12,ENE,67,1.0,3.0,75,0.00,,,0.00,weatherlink.com 1.10,2013-03-01 15:53:00,
2013-03-01 11:08:00,26.8,20.0,30.12,WNW,303,0.0,5.0,76,0.00,,,0.00,weatherlink.com 1.10,2013-03-01 16:08:00,
2013-03-01 11:23:00,26.7,19.0,30.12,NNW,345,2.0,3.0,74,0.00,,,0.00,weatherlink.com 1.10,2013-03-01 16:23:00,
2013-03-01 11:38:00,26.5,20.0,30.12,North,356,1.0,3.0,77,0.00,,,0.00,weatherlink.com 1.10,2013-03-01 16:38:00,
2013-03-01 11:53:00,27.0,20.0,30.12,NNW,340,0.0,3.0,74,0.00,,,0.00,weatherlink.com 1.10,2013-03-01 16:53:00,
2013-03-01 12:08:00,27.0,19.0,30.13,NNW,330,2.0,2.0,73,0.00,,,0.00,weatherlink.com 1.10,2013-03-01 17:08:00,
2013-03-01 12:24:00,27.3,20.0,30.13,NNW,330,0.0,2.0,73,0.00,,,0.00,weatherlink.com 1.10,2013-03-01 17:24:00,
2013-03-01 12:39:00,27.6,20.0,30.13,NNW,338,2.0,4.0,73,0.00,,,0.00,weatherlink.com 1.10,2013-03-01 17:39:00,
2013-03-01 12:54:00,27.4,20.0,30.13,NNW,336,0.0,3.0,74,0.00,,,0.00,weatherlink.com 1.10,2013-03-01 17:54:00,
2013-03-01 13:09:00,27.7,21.0,30.12,WNW,295,1.0,3.0,75,0.00,,,0.00,weatherlink.com 1.10,2013-03-01 18:09:00,
2013-03-01 13:24:00,27.7,20.0,30.12,NNW,344,1.0,3.0,73,0.00,,,0.00,weatherlink.com 1.10,2013-03-01 18:24:00,
2013-03-01 13:39:00,27.7,20.0,30.12,SE,135,0.0,3.0,74,0.00,,,0.00,weatherlink.com 1.10,2013-03-01 18:39:00,
2013-03-01 13:54:00,27.7,20.0,30.11,NW,323,3.0,4.0,73,0.00,,,0.00,weatherlink.com 1.10,2013-03-01 18:54:00,
2013-03-01 14:09:00,27.7,20.0,30.11,NNW,335,2.0,4.0,72,0.00,,,0.00,weatherlink.com 1.10,2013-03-01 19:09:00,
2013-03-01 14:24:00,28.0,20.0,30.11,NNW,339,2.0,4.0,72,0.00,,,0.00,weatherlink.com 1.10,2013-03-01 19:24:00,
2013-03-01 14:39:00,28.3,20.0,30.10,South,188,0.0,3.0,71,0.00,,,0.00,weatherlink.com 1.10,2013-03-01 19:39:00,
2013-03-01 14:54:00,28.6,20.0,30.10,NNW,335,2.0,3.0,71,0.00,,,0.00,weatherlink.com 1.10,2013-03-01 19:54:00,
2013-03-01 15:09:00,28.3,20.0,30.10,SSE,157,0.0,4.0,71,0.00,,,0.00,weatherlink.com 1.10,2013-03-01 20:09:00,
2013-03-01 15:24:00,28.8,20.0,30.11,NW,321,0.0,3.0,71,0.00,,,0.00,weatherlink.com 1.10,2013-03-01 20:24:00,
2013-03-01 15:39:00,28.7,20.0,30.10,WSW,238,0.0,3.0,70,0.00,,,0.00,weatherlink.com 1.10,2013-03-01 20:39:00,
2013-03-01 15:54:00,28.4,20.0,30.11,NNW,348,0.0,4.0,70,0.00,,,0.00,weatherlink.com 1.10,2013-03-01 20:54:00,
2013-03-01 16:09:00,29.0,20.0,30.11,East,86,0.0,2.0,69,0.00,,,0.00,weatherlink.com 1.10,2013-03-01 21:09:00,
2013-03-01 16:24:00,28.7,20.0,30.10,NW,314,0.0,3.0,71,0.00,,,0.00,weatherlink.com 1.10,2013-03-01 21:24:00,
2013-03-01 16:39:00,29.3,21.0,30.10,NNE,30,0.0,3.0,70,0.00,,,0.00,weatherlink.com 1.10,2013-03-01 21:39:00,
2013-03-01 16:54:00,29.3,21.0,30.11,NW,312,0.0,3.0,70,0.00,,,0.00,weatherlink.com 1.10,2013-03-01 21:54:00,
2013-03-01 17:09:00,29.3,21.0,30.11,NNW,346,0.0,3.0,70,0.00,,,0.00,weatherlink.com 1.10,2013-03-01 22:09:00,
2013-03-01 17:24:00,28.8,19.0,30.11,NNE,32,0.0,3.0,68,0.00,,,0.00,weatherlink.com 1.10,2013-03-01 22:24:00,
2013-03-01 17:39:00,28.6,20.0,30.11,NNW,330,1.0,3.0,70,0.00,,,0.00,weatherlink.com 1.10,2013-03-01 22:39:00,
2013-03-01 17:54:00,28.4,20.0,30.11,North,356,0.0,2.0,70,0.00,,,0.00,weatherlink.com 1.10,2013-03-01 22:54:00,
2013-03-01 18:09:00,28.0,19.0,30.11,NW,322,0.0,3.0,70,0.00,,,0.00,weatherlink.com 1.10,2013-03-01 23:09:00,
2013-03-01 18:24:00,27.5,19.0,30.12,SSW,198,0.0,1.0,71,0.00,,,0.00,weatherlink.com 1.10,2013-03-01 23:24:00,
2013-03-01 18:39:00,27.0,19.0,30.12,SSW,201,0.0,0.0,73,0.00,,,0.00,weatherlink.com 1.10,2013-03-01 23:39:00,
2013-03-01 18:54:00,26.4,19.0,30.12,SSW,201,0.0,0.0,74,0.00,,,0.00,weatherlink.com 1.10,2013-03-01 23:54:00,
2013-03-01 19:09:00,25.8,20.0,30.12,SSW,201,0.0,0.0,77,0.00,,,0.00,weatherlink.com 1.10,2013-03-02 00:09:00,
2013-03-01 19:24:00,25.2,19.0,30.13,SSW,201,0.0,0.0,77,0.00,,,0.00,weatherlink.com 1.10,2013-03-02 00:24:00,
2013-03-01 19:39:00,24.8,19.0,30.13,SSW,201,0.0,0.0,78,0.00,,,0.00,weatherlink.com 1.10,2013-03-02 00:39:00,
2013-03-01 19:54:00,24.3,19.0,30.13,SSW,201,0.0,0.0,79,0.00,,,0.00,weatherlink.com 1.10,2013-03-02 00:54:00,
2013-03-01 20:09:00,23.9,19.0,30.13,SSW,201,0.0,0.0,81,0.00,,,0.00,weatherlink.com 1.10,2013-03-02 01:09:00,
2013-03-01 20:24:00,23.6,19.0,30.13,SSW,201,0.0,0.0,81,0.00,,,0.00,weatherlink.com 1.10,2013-03-02 01:24:00,
2013-03-01 20:39:00,23.2,19.0,30.14,SSW,201,0.0,0.0,82,0.00,,,0.00,weatherlink.com 1.10,2013-03-02 01:39:00,
2013-03-01 20:55:00,22.9,19.0,30.14,SSW,201,0.0,0.0,83,0.00,,,0.00,weatherlink.com 1.10,2013-03-02 01:55:00,
2013-03-01 21:09:00,22.5,19.0,30.15,South,177,0.0,0.0,85,0.00,,,0.00,weatherlink.com 1.10,2013-03-02 02:09:00,
2013-03-01 21:24:00,22.3,19.0,30.15,South,177,0.0,0.0,85,0.00,,,0.00,weatherlink.com 1.10,2013-03-02 02:24:00,
2013-03-01 21:39:00,22.5,18.0,30.15,NNW,329,0.0,0.0,84,0.00,,,0.00,weatherlink.com 1.10,2013-03-02 02:39:00,
2013-03-01 21:54:00,23.6,18.0,30.16,NW,319,0.0,2.0,79,0.00,,,0.00,weatherlink.com 1.10,2013-03-02 02:54:00,
2013-03-01 22:09:00,23.9,18.0,30.16,NNE,23,0.0,2.0,78,0.00,,,0.00,weatherlink.com 1.10,2013-03-02 03:09:00,
2013-03-01 22:24:00,23.8,18.0,30.16,North,352,0.0,2.0,77,0.00,,,0.00,weatherlink.com 1.10,2013-03-02 03:24:00,
2013-03-01 22:39:00,23.6,17.0,30.16,NNE,16,1.0,3.0,77,0.00,,,0.00,weatherlink.com 1.10,2013-03-02 03:39:00,
2013-03-01 22:54:00,23.4,17.0,30.16,NNW,332,0.0,3.0,77,0.00,,,0.00,weatherlink.com 1.10,2013-03-02 03:54:00,
2013-03-01 23:09:00,23.3,17.0,30.16,NE,42,0.0,0.0,78,0.00,,,0.00,weatherlink.com 1.10,2013-03-02 04:09:00,
2013-03-01 23:24:00,23.1,17.0,30.16,WSW,246,0.0,2.0,77,0.00,,,0.00,weatherlink.com 1.10,2013-03-02 04:24:00,
2013-03-01 23:39:00,23.0,17.0,30.15,NNE,22,0.0,1.0,77,0.00,,,0.00,weatherlink.com 1.10,2013-03-02 04:39:00,
2013-03-01 23:54:00,22.9,17.0,30.15,South,188,0.0,1.0,77,0.00,,,0.00,weatherlink.com 1.10,2013-03-02 04:54:00,